| time (UTC) | temp F | wind direction | speed MPH | gust MPH | rain 1hr in | rain 24hr in | rain mn in | humidity % | barometer mb |
| 20260505101901 | 46 | 162 | 0.0 | 2.0 | 0.00 | 0.00 | 0.00 | 91 | 1017.0 |
| 20260505101401 | 46 | 162 | 1.0 | 2.0 | 0.00 | 0.00 | 0.00 | 91 | 1017.1 |
| 20260505100900 | 46 | 162 | 1.0 | 2.0 | 0.00 | 0.00 | 0.00 | 91 | 1017.1 |
| 20260505100400 | 46 | 162 | 0.0 | 2.0 | 0.00 | 0.00 | 0.00 | 91 | 1017.2 |
| 20260505095901 | 46 | 162 | 1.0 | 2.0 | 0.00 | 0.00 | 0.00 | 91 | 1017.2 |
| 20260505095409 | 46 | 162 | 0.0 | 2.0 | 0.00 | 0.00 | 0.00 | 92 | 1017.3 |
| 20260505095401 | 46 | 162 | 0.0 | 2.0 | 0.00 | 0.00 | 0.00 | 92 | 1017.3 |
| 20260505094632 | 46 | 162 | 1.0 | 2.0 | 0.00 | 0.00 | 0.00 | 93 | 1017.4 |
| 20260505093901 | 45 | 162 | 1.0 | 2.0 | 0.00 | 0.00 | 0.00 | 93 | 1017.3 |
| 20260505093401 | 45 | 162 | 1.0 | 2.0 | 0.00 | 0.00 | 0.00 | 93 | 1017.3 |
| 20260505092901 | 45 | 162 | 1.0 | 1.0 | 0.00 | 0.00 | 0.00 | 93 | 1017.3 |
| 20260505092401 | 45 | 162 | 1.0 | 2.0 | 0.00 | 0.00 | 0.00 | 92 | 1017.3 |
| 20260505091901 | 45 | 162 | 1.0 | 4.0 | 0.00 | 0.00 | 0.00 | 92 | 1017.3 |
| 20260505091401 | 46 | 162 | 1.0 | 4.0 | 0.00 | 0.00 | 0.00 | 91 | 1017.3 |
| 20260505090901 | 46 | 156 | 1.0 | 2.0 | 0.00 | 0.00 | 0.00 | 90 | 1017.2 |
| 20260505090401 | 46 | 156 | 1.0 | 2.0 | 0.00 | 0.00 | 0.00 | 90 | 1017.2 |
| 20260505085901 | 47 | 156 | 0.0 | 2.0 | 0.00 | 0.00 | 0.00 | 89 | 1017.2 |
| 20260505085401 | 47 | 156 | 1.0 | 2.0 | 0.00 | 0.00 | 0.00 | 88 | 1017.3 |
| 20260505085132 | 48 | 156 | 0.0 | 2.0 | 0.00 | 0.00 | 0.00 | 87 | 1017.2 |
| 20260505084355 | 49 | 156 | 0.0 | 1.0 | 0.00 | 0.00 | 0.00 | 86 | 1017.2 |
| 20260505083830 | 49 | 156 | 0.0 | 2.0 | 0.00 | 0.00 | 0.00 | 86 | 1017.1 |
| 20260505083331 | 49 | 156 | 0.0 | 2.0 | 0.00 | 0.00 | 0.00 | 86 | 1017.1 |
| 20260505082830 | 49 | 156 | 0.0 | 2.0 | 0.00 | 0.00 | 0.00 | 86 | 1017.2 |
| 20260505082330 | 49 | 156 | 0.0 | 1.0 | 0.00 | 0.00 | 0.00 | 87 | 1017.2 |
| 20260505081828 | 48 | 156 | 0.0 | 1.0 | 0.00 | 0.00 | 0.00 | 88 | 1017.2 |
| 20260505081330 | 48 | 156 | 0.0 | 1.0 | 0.00 | 0.00 | 0.00 | 88 | 1017.3 |
| 20260505080829 | 48 | 156 | 0.0 | 1.0 | 0.00 | 0.00 | 0.00 | 88 | 1017.2 |
| 20260505080330 | 48 | 156 | 0.0 | 1.0 | 0.00 | 0.00 | 0.00 | 89 | 1017.1 |
| 20260505075828 | 47 | 156 | 0.0 | 2.0 | 0.00 | 0.00 | 0.00 | 88 | 1017.1 |
| 20260505075329 | 48 | 156 | 0.0 | 2.0 | 0.00 | 0.00 | 0.00 | 87 | 1017.2 |
| 20260505074829 | 48 | 156 | 0.0 | 2.0 | 0.00 | 0.00 | 0.00 | 87 | 1017.1 |
| 20260505074329 | 48 | 156 | 0.0 | 1.0 | 0.00 | 0.00 | 0.00 | 86 | 1017.1 |
| 20260505073829 | 48 | 156 | 0.0 | 1.0 | 0.00 | 0.00 | 0.00 | 86 | 1017.0 |
| 20260505073100 | 49 | 156 | 0.0 | 2.0 | 0.00 | 0.00 | 0.00 | 84 | 1016.9 |
| 20260505072601 | 49 | 156 | 0.0 | 2.0 | 0.00 | 0.00 | 0.00 | 83 | 1017.0 |
| 20260505071828 | 50 | 156 | 1.0 | 2.0 | 0.00 | 0.00 | 0.00 | 82 | 1017.0 |
| 20260505071330 | 50 | 155 | 1.0 | 2.0 | 0.00 | 0.00 | 0.00 | 81 | 1017.0 |
| 20260505070828 | 51 | 155 | 0.0 | 2.0 | 0.00 | 0.00 | 0.00 | 81 | 1017.1 |
| 20260505070329 | 51 | 155 | 0.0 | 2.0 | 0.00 | 0.00 | 0.00 | 79 | 1017.1 |
| 20260505065830 | 51 | 155 | 0.0 | 1.0 | 0.00 | 0.00 | 0.00 | 79 | 1017.1 |
| 20260505065329 | 52 | 155 | 0.0 | 2.0 | 0.00 | 0.00 | 0.00 | 78 | 1017.0 |
| 20260505064829 | 52 | 155 | 0.0 | 2.0 | 0.00 | 0.00 | 0.00 | 77 | 1017.0 |
| 20260505064329 | 52 | 155 | 0.0 | 2.0 | 0.00 | 0.00 | 0.00 | 77 | 1017.0 |
| 20260505063828 | 52 | 155 | 0.0 | 1.0 | 0.00 | 0.00 | 0.00 | 78 | 1017.1 |
| 20260505063329 | 52 | 155 | 0.0 | 2.0 | 0.00 | 0.00 | 0.00 | 77 | 1017.1 |
| 20260505062830 | 52 | 155 | 1.0 | 3.0 | 0.00 | 0.00 | 0.00 | 79 | 1017.1 |
| 20260505062329 | 52 | 155 | 1.0 | 3.0 | 0.00 | 0.00 | 0.00 | 79 | 1017.2 |
| 20260505061829 | 51 | 155 | 0.0 | 2.0 | 0.00 | 0.00 | 0.00 | 80 | 1017.2 |
| 20260505061328 | 51 | 155 | 0.0 | 1.0 | 0.00 | 0.00 | 0.00 | 80 | 1017.3 |
| 20260505060829 | 51 | 155 | 0.0 | 2.0 | 0.00 | 0.00 | 0.00 | 80 | 1017.2 |
| 20260505060329 | 51 | 155 | 0.0 | 2.0 | 0.00 | 0.00 | 0.00 | 80 | 1017.3 |
| 20260505055829 | 51 | 155 | 0.0 | 2.0 | 0.00 | 0.00 | 0.00 | 80 | 1017.4 |
| 20260505055328 | 52 | 155 | 0.0 | 2.0 | 0.00 | 0.00 | 0.00 | 79 | 1017.3 |
| 20260505054830 | 52 | 155 | 1.0 | 3.0 | 0.00 | 0.00 | 0.00 | 76 | 1017.3 |
| 20260505054330 | 53 | 155 | 1.0 | 3.0 | 0.00 | 0.00 | 0.00 | 75 | 1017.3 |
| 20260505053830 | 54 | 119 | 0.0 | 2.0 | 0.00 | 0.00 | 0.00 | 74 | 1017.3 |
| 20260505053559 | 54 | 119 | 0.0 | 1.0 | 0.00 | 0.00 | 0.00 | 73 | 1017.3 |
| 20260505052830 | 55 | 119 | 0.0 | 1.0 | 0.00 | 0.00 | 0.00 | 72 | 1017.4 |
| 20260505052328 | 55 | 119 | 0.0 | 2.0 | 0.00 | 0.00 | 0.00 | 72 | 1017.4 |
| 20260505051829 | 55 | 119 | 0.0 | 2.0 | 0.00 | 0.00 | 0.00 | 70 | 1017.4 |
| 20260505051329 | 56 | 119 | 0.0 | 2.0 | 0.00 | 0.00 | 0.00 | 70 | 1017.2 |
| 20260505051103 | 56 | 119 | 1.0 | 2.0 | 0.00 | 0.00 | 0.00 | 70 | 1017.3 |
| 20260505050329 | 56 | 119 | 0.0 | 2.0 | 0.00 | 0.00 | 0.00 | 71 | 1017.3 |
| 20260505041328 | 59 | 121 | 1.0 | 6.0 | 0.00 | 0.00 | 0.00 | 65 | 1017.3 |
| 20260505040817 | 59 | 119 | 1.0 | 6.0 | 0.00 | 0.00 | 0.00 | 65 | 1017.4 |
| 20260505040318 | 58 | 108 | 1.0 | 4.0 | 0.00 | 0.00 | 0.00 | 68 | 1017.4 |
| 20260505035808 | 58 | 152 | 1.0 | 2.0 | 0.00 | 0.00 | 0.00 | 67 | 1017.3 |
| 20260505035306 | 58 | 163 | 1.0 | 2.0 | 0.00 | 0.00 | 0.00 | 68 | 1017.4 |
| 20260505035033 | 58 | 163 | 1.0 | 2.0 | 0.00 | 0.00 | 0.00 | 69 | 1017.4 |
| 20260505034303 | 58 | 116 | 1.0 | 2.0 | 0.00 | 0.00 | 0.00 | 69 | 1017.5 |
| 20260505033803 | 58 | 116 | 0.0 | 2.0 | 0.00 | 0.00 | 0.00 | 69 | 1017.6 |
| 20260505033301 | 58 | 116 | 1.0 | 3.0 | 0.00 | 0.00 | 0.00 | 70 | 1017.7 |
| 20260505032804 | 58 | 116 | 1.0 | 3.0 | 0.00 | 0.00 | 0.00 | 70 | 1017.7 |
| 20260505032301 | 57 | 352 | 0.0 | 2.0 | 0.00 | 0.00 | 0.00 | 70 | 1017.7 |
| 20260505031802 | 57 | 352 | 0.0 | 1.0 | 0.00 | 0.00 | 0.00 | 69 | 1017.8 |
| 20260505031302 | 58 | 352 | 0.0 | 1.0 | 0.00 | 0.00 | 0.00 | 69 | 1017.8 |
| 20260505030803 | 58 | 351 | 0.0 | 2.0 | 0.00 | 0.00 | 0.00 | 69 | 1017.8 |
| 20260505030532 | 58 | 351 | 0.0 | 2.0 | 0.00 | 0.00 | 0.00 | 69 | 1017.8 |
| 20260505025804 | 59 | 73 | 0.0 | 0.0 | 0.00 | 0.00 | 0.00 | 69 | 1017.8 |
| 20260505025532 | 59 | 73 | 0.0 | 0.0 | 0.00 | 0.00 | 0.00 | 68 | 1017.8 |
| 20260505024802 | 59 | 73 | 0.0 | 1.0 | 0.00 | 0.00 | 0.00 | 68 | 1017.7 |
| 20260505024533 | 59 | 73 | 1.0 | 2.0 | 0.00 | 0.00 | 0.00 | 66 | 1017.9 |
| 20260505024032 | 59 | 73 | 1.0 | 2.0 | 0.00 | 0.00 | 0.00 | 67 | 1017.9 |
| 20260505023301 | 59 | 73 | 1.0 | 2.0 | 0.00 | 0.00 | 0.00 | 65 | 1017.8 |
| 20260505022804 | 59 | 73 | 1.0 | 2.0 | 0.00 | 0.00 | 0.00 | 66 | 1017.7 |
| 20260505022533 | 59 | 73 | 1.0 | 2.0 | 0.00 | 0.00 | 0.00 | 66 | 1017.7 |
| 20260505021802 | 59 | 73 | 1.0 | 1.0 | 0.00 | 0.00 | 0.00 | 66 | 1017.7 |
| 20260505021538 | 60 | 73 | 1.0 | 2.0 | 0.00 | 0.00 | 0.00 | 67 | 1017.6 |
| 20260505020803 | 60 | 73 | 1.0 | 2.0 | 0.00 | 0.00 | 0.00 | 66 | 1017.6 |
| 20260505020532 | 60 | 73 | 1.0 | 2.0 | 0.00 | 0.00 | 0.00 | 66 | 1017.6 |
| 20260505015809 | 60 | 73 | 1.0 | 2.0 | 0.00 | 0.00 | 0.00 | 67 | 1017.6 |
| 20260505015301 | 60 | 73 | 0.0 | 1.0 | 0.00 | 0.00 | 0.00 | 67 | 1017.5 |
| 20260505014801 | 60 | 73 | 0.0 | 1.0 | 0.00 | 0.00 | 0.00 | 66 | 1017.4 |
| 20260505014307 | 60 | 73 | 1.0 | 2.0 | 0.00 | 0.00 | 0.00 | 65 | 1017.4 |
| 20260505013803 | 61 | 73 | 1.0 | 2.0 | 0.00 | 0.00 | 0.00 | 65 | 1017.3 |
| 20260505013301 | 61 | 73 | 1.0 | 1.0 | 0.00 | 0.00 | 0.00 | 64 | 1017.2 |
| 20260505013041 | 61 | 73 | 1.0 | 1.0 | 0.00 | 0.00 | 0.00 | 64 | 1017.2 |
| 20260505012301 | 61 | 73 | 1.0 | 2.0 | 0.00 | 0.00 | 0.00 | 63 | 1017.1 |
| 20260505011802 | 62 | 73 | 1.0 | 2.0 | 0.00 | 0.00 | 0.00 | 63 | 1017.1 |
| 20260505011303 | 62 | 73 | 1.0 | 2.0 | 0.00 | 0.00 | 0.00 | 63 | 1017.2 |
| 20260505010802 | 62 | 73 | 1.0 | 2.0 | 0.00 | 0.00 | 0.00 | 62 | 1017.1 |
| 20260505010300 | 62 | 73 | 1.0 | 2.0 | 0.00 | 0.00 | 0.00 | 62 | 1017.1 |
| 20260505005810 | 63 | 73 | 1.0 | 2.0 | 0.00 | 0.00 | 0.00 | 62 | 1017.0 |
| 20260505005303 | 63 | 73 | 1.0 | 2.0 | 0.00 | 0.00 | 0.00 | 61 | 1016.9 |
| 20260505004803 | 64 | 78 | 1.0 | 2.0 | 0.00 | 0.00 | 0.00 | 61 | 1016.9 |
| 20260505004305 | 64 | 78 | 1.0 | 6.0 | 0.00 | 0.00 | 0.00 | 60 | 1016.7 |
| 20260505004033 | 65 | 105 | 1.0 | 6.0 | 0.00 | 0.00 | 0.00 | 60 | 1016.7 |
| 20260505003300 | 65 | 131 | 1.0 | 4.0 | 0.00 | 0.00 | 0.00 | 59 | 1016.7 |
| 20260505003050 | 65 | 86 | 1.0 | 3.0 | 0.00 | 0.00 | 0.00 | 59 | 1016.6 |
| 20260505002305 | 66 | 88 | 1.0 | 4.0 | 0.00 | 0.00 | 0.00 | 58 | 1016.5 |
| 20260505002300 | 65 | 87 | 1.0 | 4.0 | 0.00 | 0.00 | 0.00 | 60 | 1016.6 |
| 20260505001253 | 66 | 64 | 1.0 | 6.0 | 0.00 | 0.00 | 0.00 | 56 | 1016.4 |
| 20260505000753 | 67 | 128 | 1.0 | 6.0 | 0.00 | 0.00 | 0.00 | 58 | 1016.4 |
| 20260505000253 | 67 | 88 | 1.0 | 6.0 | 0.00 | 0.00 | 0.00 | 57 | 1016.4 |
| 20260504235745 | 67 | 89 | 2.0 | 6.0 | 0.00 | 0.00 | 0.00 | 57 | 1016.3 |
| 20260504235243 | 67 | 165 | 1.0 | 5.0 | 0.00 | 0.00 | 0.00 | 57 | 1016.2 |
| 20260504235014 | 68 | 61 | 1.0 | 3.0 | 0.00 | 0.00 | 0.00 | 56 | 1016.2 |
| 20260504234518 | 68 | 107 | 1.0 | 3.0 | 0.00 | 0.00 | 0.00 | 53 | 1016.2 |
| 20260504233744 | 68 | 104 | 1.0 | 3.0 | 0.00 | 0.00 | 0.00 | 55 | 1016.1 |
| 20260504233252 | 69 | 100 | 1.0 | 4.0 | 0.00 | 0.00 | 0.00 | 53 | 1016.1 |
| 20260504233243 | 69 | 100 | 1.0 | 4.0 | 0.00 | 0.00 | 0.00 | 53 | 1016.1 |
| 20260504232238 | 69 | 342 | 1.0 | 4.0 | 0.00 | 0.00 | 0.00 | 54 | 1016.0 |
| 20260504231737 | 70 | 86 | 1.0 | 6.0 | 0.00 | 0.00 | 0.00 | 52 | 1016.0 |
| 20260504231513 | 71 | 94 | 2.0 | 7.0 | 0.00 | 0.00 | 0.00 | 52 | 1015.9 |
| 20260504231008 | 71 | 197 | 2.0 | 7.0 | 0.00 | 0.00 | 0.00 | 48 | 1015.9 |
| 20260504230237 | 72 | 315 | 2.0 | 8.0 | 0.00 | 0.00 | 0.00 | 46 | 1015.9 |
| 20260504230233 | 71 | 88 | 2.0 | 7.0 | 0.00 | 0.00 | 0.00 | 47 | 1015.9 |
| 20260504225229 | 72 | 234 | 2.0 | 8.0 | 0.00 | 0.00 | 0.00 | 47 | 1015.9 |
| 20260504224729 | 72 | 339 | 2.0 | 9.0 | 0.00 | 0.00 | 0.00 | 48 | 1015.9 |
| 20260504224503 | 73 | 350 | 2.0 | 9.0 | 0.00 | 0.00 | 0.00 | 49 | 1015.8 |
| 20260504224003 | 73 | 277 | 2.0 | 6.0 | 0.00 | 0.00 | 0.00 | 46 | 1015.8 |
| 20260504223228 | 73 | 285 | 3.0 | 7.0 | 0.00 | 0.00 | 0.00 | 46 | 1015.7 |
| 20260504222728 | 74 | 246 | 2.0 | 8.0 | 0.00 | 0.00 | 0.00 | 45 | 1015.8 |
| 20260504222228 | 73 | 46 | 3.0 | 9.0 | 0.00 | 0.00 | 0.00 | 47 | 1015.8 |
| 20260504221959 | 73 | 61 | 4.0 | 13.0 | 0.00 | 0.00 | 0.00 | 45 | 1015.8 |
| 20260504221503 | 73 | 166 | 3.0 | 13.0 | 0.00 | 0.00 | 0.00 | 44 | 1015.8 |
| 20260504220959 | 74 | 207 | 3.0 | 10.0 | 0.00 | 0.00 | 0.00 | 42 | 1015.7 |
| 20260504220502 | 74 | 51 | 3.0 | 11.0 | 0.00 | 0.00 | 0.00 | 44 | 1015.6 |
| 20260504215729 | 74 | 234 | 3.0 | 11.0 | 0.00 | 0.00 | 0.00 | 42 | 1015.7 |
| 20260504215229 | 74 | 144 | 3.0 | 9.0 | 0.00 | 0.00 | 0.00 | 41 | 1015.7 |
| 20260504214729 | 74 | 83 | 4.0 | 14.0 | 0.00 | 0.00 | 0.00 | 42 | 1015.7 |
| 20260504214229 | 74 | 197 | 4.0 | 14.0 | 0.00 | 0.00 | 0.00 | 41 | 1015.5 |
| 20260504213959 | 74 | 96 | 5.0 | 12.0 | 0.00 | 0.00 | 0.00 | 42 | 1015.6 |
| 20260504213229 | 74 | 73 | 4.0 | 11.0 | 0.00 | 0.00 | 0.00 | 41 | 1015.5 |
| 20260504212729 | 75 | 32 | 3.0 | 11.0 | 0.00 | 0.00 | 0.00 | 40 | 1015.6 |
| 20260504212229 | 75 | 342 | 4.0 | 13.0 | 0.00 | 0.00 | 0.00 | 38 | 1015.6 |
| 20260504211736 | 76 | 86 | 2.0 | 7.0 | 0.00 | 0.00 | 0.00 | 34 | 1015.5 |
| 20260504211730 | 76 | 193 | 3.0 | 13.0 | 0.00 | 0.00 | 0.00 | 37 | 1015.5 |
| 20260504211004 | 77 | 155 | 2.0 | 7.0 | 0.00 | 0.00 | 0.00 | 33 | 1015.5 |
| 20260504210228 | 77 | 246 | 3.0 | 7.0 | 0.00 | 0.00 | 0.00 | 30 | 1015.5 |
| 20260504205728 | 77 | 109 | 3.0 | 14.0 | 0.00 | 0.00 | 0.00 | 29 | 1015.6 |
| 20260504205459 | 77 | 202 | 3.0 | 14.0 | 0.00 | 0.00 | 0.00 | 27 | 1015.5 |
| 20260504204729 | 77 | 251 | 3.0 | 13.0 | 0.00 | 0.00 | 0.00 | 26 | 1015.6 |
| 20260504204229 | 77 | 105 | 4.0 | 13.0 | 0.00 | 0.00 | 0.00 | 27 | 1015.6 |
| 20260504203729 | 77 | 125 | 4.0 | 10.0 | 0.00 | 0.00 | 0.00 | 28 | 1015.5 |
| 20260504203229 | 78 | 225 | 3.0 | 10.0 | 0.00 | 0.00 | 0.00 | 31 | 1015.5 |
| 20260504202729 | 78 | 196 | 3.0 | 11.0 | 0.00 | 0.00 | 0.00 | 31 | 1015.5 |
| 20260504202228 | 78 | 207 | 4.0 | 11.0 | 0.00 | 0.00 | 0.00 | 31 | 1015.5 |
| 20260504202000 | 78 | 110 | 3.0 | 10.0 | 0.00 | 0.00 | 0.00 | 31 | 1015.7 |
| 20260504201504 | 79 | 161 | 2.0 | 7.0 | 0.00 | 0.00 | 0.00 | 31 | 1015.8 |
| 20260504201001 | 78 | 219 | 2.0 | 7.0 | 0.00 | 0.00 | 0.00 | 30 | 1015.9 |
| 20260504200503 | 78 | 92 | 3.0 | 12.0 | 0.00 | 0.00 | 0.00 | 32 | 1015.9 |
| 20260504200009 | 78 | 156 | 3.0 | 12.0 | 0.00 | 0.00 | 0.00 | 31 | 1016.1 |
| 20260504200005 | 78 | 190 | 3.0 | 12.0 | 0.00 | 0.00 | 0.00 | 32 | 1016.0 |
| 20260504194730 | 77 | 84 | 3.0 | 12.0 | 0.00 | 0.00 | 0.00 | 32 | 1016.2 |
| 20260504194229 | 77 | 117 | 3.0 | 11.0 | 0.00 | 0.00 | 0.00 | 36 | 1016.2 |
| 20260504193729 | 76 | 154 | 4.0 | 9.0 | 0.00 | 0.00 | 0.00 | 34 | 1016.3 |
| 20260504193229 | 76 | 117 | 3.0 | 8.0 | 0.00 | 0.00 | 0.00 | 35 | 1016.4 |
| 20260504192730 | 76 | 238 | 3.0 | 8.0 | 0.00 | 0.00 | 0.00 | 38 | 1016.5 |
| 20260504192229 | 75 | 104 | 3.0 | 8.0 | 0.00 | 0.00 | 0.00 | 36 | 1016.5 |
| 20260504191731 | 76 | 94 | 2.0 | 6.0 | 0.00 | 0.00 | 0.00 | 37 | 1016.7 |
| 20260504191229 | 75 | 235 | 3.0 | 11.0 | 0.00 | 0.00 | 0.00 | 40 | 1016.8 |
| 20260504190730 | 74 | 262 | 3.0 | 11.0 | 0.00 | 0.00 | 0.00 | 38 | 1016.9 |
| 20260504190229 | 75 | 89 | 3.0 | 9.0 | 0.00 | 0.00 | 0.00 | 44 | 1017.0 |
| 20260504190004 | 74 | 149 | 2.0 | 9.0 | 0.00 | 0.00 | 0.00 | 39 | 1017.1 |
| 20260504185229 | 75 | 188 | 2.0 | 10.0 | 0.00 | 0.00 | 0.00 | 42 | 1017.1 |
| 20260504184731 | 74 | 72 | 3.0 | 10.0 | 0.00 | 0.00 | 0.00 | 41 | 1017.3 |
| 20260504184229 | 74 | 242 | 2.0 | 6.0 | 0.00 | 0.00 | 0.00 | 42 | 1017.4 |
| 20260504183729 | 74 | 130 | 2.0 | 6.0 | 0.00 | 0.00 | 0.00 | 40 | 1017.5 |
| 20260504183229 | 73 | 209 | 3.0 | 7.0 | 0.00 | 0.00 | 0.00 | 41 | 1017.6 |
| 20260504182727 | 73 | 130 | 3.0 | 7.0 | 0.00 | 0.00 | 0.00 | 41 | 1017.7 |
| 20260504182457 | 73 | 171 | 3.0 | 7.0 | 0.00 | 0.00 | 0.00 | 43 | 1017.8 |
| 20260504181724 | 73 | 153 | 3.0 | 9.0 | 0.00 | 0.00 | 0.00 | 42 | 1017.9 |
| 20260504181509 | 73 | 114 | 2.0 | 9.0 | 0.00 | 0.00 | 0.00 | 41 | 1017.9 |
| 20260504180724 | 73 | 112 | 2.0 | 6.0 | 0.00 | 0.00 | 0.00 | 40 | 1017.9 |
| 20260504180218 | 73 | 125 | 2.0 | 6.0 | 0.00 | 0.00 | 0.00 | 43 | 1017.9 |
| 20260504175717 | 74 | 269 | 2.0 | 8.0 | 0.00 | 0.00 | 0.00 | 41 | 1018.0 |
| 20260504175213 | 73 | 235 | 3.0 | 8.0 | 0.00 | 0.00 | 0.00 | 42 | 1018.2 |
| 20260504174713 | 73 | 204 | 2.0 | 5.0 | 0.00 | 0.00 | 0.00 | 44 | 1018.1 |
| 20260504174217 | 73 | 246 | 2.0 | 7.0 | 0.00 | 0.00 | 0.00 | 38 | 1018.3 |
| 20260504174213 | 73 | 248 | 3.0 | 7.0 | 0.00 | 0.00 | 0.00 | 41 | 1018.2 |
| 20260504173212 | 74 | 277 | 2.0 | 9.0 | 0.00 | 0.00 | 0.00 | 42 | 1018.3 |
| 20260504172943 | 73 | 220 | 3.0 | 9.0 | 0.00 | 0.00 | 0.00 | 42 | 1018.4 |
| 20260504172209 | 73 | 188 | 2.0 | 4.0 | 0.00 | 0.00 | 0.00 | 40 | 1018.4 |
| 20260504171710 | 72 | 136 | 2.0 | 8.0 | 0.00 | 0.00 | 0.00 | 41 | 1018.5 |
| 20260504171209 | 72 | 319 | 3.0 | 8.0 | 0.00 | 0.00 | 0.00 | 46 | 1018.7 |
| 20260504170709 | 71 | 202 | 3.0 | 7.0 | 0.00 | 0.00 | 0.00 | 47 | 1018.8 |
| 20260504170209 | 71 | 222 | 3.0 | 7.0 | 0.00 | 0.00 | 0.00 | 43 | 1018.8 |
| 20260504160436 | 67 | 63 | 2.0 | 8.0 | 0.00 | 0.00 | 0.00 | 51 | 1020.2 |
| 20260504150702 | 61 | 198 | 1.0 | 4.0 | 0.00 | 0.00 | 0.00 | 57 | 1021.0 |
| 20260504150202 | 60 | 229 | 1.0 | 4.0 | 0.00 | 0.00 | 0.00 | 57 | 1021.1 |
| 20260504141201 | 54 | 223 | 1.0 | 4.0 | 0.00 | 0.00 | 0.00 | 64 | 1021.7 |
| 20260504140932 | 54 | 232 | 1.0 | 4.0 | 0.00 | 0.00 | 0.00 | 66 | 1021.7 |
| 20260504140155 | 53 | 218 | 2.0 | 3.0 | 0.00 | 0.00 | 0.00 | 69 | 1021.7 |
| 20260504130629 | 44 | 271 | 0.0 | 1.0 | 0.00 | 0.00 | 0.00 | 88 | 1021.7 |
| 20260504130401 | 42 | 271 | 0.0 | 0.0 | 0.00 | 0.00 | 0.00 | 90 | 1021.6 |
| 20260504130348 | 41 | 271 | 0.0 | 0.0 | 0.00 | 0.00 | 0.00 | 91 | 1021.5 |
| 20260504120134 | 37 | 271 | 0.0 | 0.0 | 0.00 | 0.00 | 0.00 | 95 | 1021.3 |
| 20260504120130 | 37 | 271 | 0.0 | 0.0 | 0.00 | 0.00 | 0.00 | 95 | 1021.3 |